Greenville, ME

7:32 AM EDT on April 25, 2017 (GMT -0400)
Greenville

Weather History for KGNR - January, 2013

Change the Weather History Date:

Wednesday, January 30, 2013

  Actual Average (KMLT) Record (KMLT)
Temperature  
Mean Temperature 34 °F -  
Max Temperature 44 °F 25 °F 48 °F (2013)
Min Temperature 23 °F 3 °F -24 °F (1971)
Degree Days  
Heating Degree Days 32    
Moisture  
Dew Point 34 °F    
Average Humidity 99    
Maximum Humidity 100    
Minimum Humidity 96    
Precipitation  
Precipitation 0.11 in - - ()
Sea Level Pressure  
Sea Level Pressure 29.68 in    
Wind  
Wind Speed 9 mph (SSE)    
Max Wind Speed 15 mph    
Max Gust Speed 25 mph    
Averages and records for this station are not official NWS values.
T = Trace of Precipitation, MM = Missing Value Source: NWS Daily Summary

Daily Weather History Graph

Daily Weather History Graph

Search for Another Location

Airport or City:

Trip Planner

Search our weather history database for the weather conditions in past years. The results will help you decide how hot, cold, wet, or windy it might be!

Date:

Astronomy

Jan. 30, 2013 Rise Set
Actual Time 7:01 AM EST 4:42 PM EST
Civil Twilight 6:29 AM EST 5:14 PM EST
Nautical Twilight 5:54 AM EST 5:49 PM EST
Astronomical Twilight 5:19 AM EST 6:24 PM EST
Moon 8:52 PM EST (1/30) 8:14 AM EST (1/30)
Length of Visible Light 10h 44m
Length of Day
9h 41m
Waning Gibbous, 88% of the Moon is Illuminated
Jan 30
Waning Gibbous
Feb 3
Last Quarter
Feb 10
New
Feb 17
First Quarter
Feb 25
Full

Hourly Weather History & Observations

Time (EST) Temp. Windchill Dew Point Humidity Pressure Visibility Wind Dir Wind Speed Gust Speed Precip Events Conditions
12:56 AM 23.0 °F 13.9 °F 21.9 °F 96% 30.05 in - SSE 8.1 mph - N/A   Unknown
1:56 AM 24.1 °F 16.0 °F 24.1 °F 100% 30.02 in - SSE 6.9 mph - N/A   Unknown
2:56 AM 24.1 °F 16.0 °F 23.0 °F 96% 29.99 in - SSE 6.9 mph - N/A   Unknown
3:56 AM 26.1 °F 16.8 °F 25.0 °F 96% 29.96 in - SSE 9.2 mph 18.4 mph N/A   Unknown
4:56 AM 28.0 °F 21.7 °F 27.0 °F 96% 29.92 in - Variable 5.8 mph - 0.01 in   Unknown
5:56 AM 30.0 °F 23.2 °F 30.0 °F 100% 29.91 in - SSE 6.9 mph - N/A   Unknown
6:56 AM 32.0 °F 23.0 °F 30.9 °F 96% 29.87 in - South 11.5 mph 23.0 mph 0.01 in   Unknown
7:56 AM 32.0 °F 24.2 °F 32.0 °F 100% 29.86 in - SSE 9.2 mph - 0.02 in   Unknown
8:56 AM 33.1 °F 23.0 °F 33.1 °F 100% 29.84 in - South 15.0 mph 25.3 mph N/A   Unknown
9:56 AM 34.0 °F 26.6 °F 34.0 °F 100% 29.79 in - South 9.2 mph 21.9 mph N/A   Unknown
10:56 AM 34.0 °F 25.5 °F 34.0 °F 100% 29.74 in - South 11.5 mph 24.2 mph N/A   Unknown
11:56 AM 35.1 °F 25.9 °F 35.1 °F 100% 29.67 in - South 13.8 mph 24.2 mph N/A   Unknown
12:56 PM 36.0 °F 28.0 °F 36.0 °F 100% 29.63 in - South 11.5 mph 21.9 mph N/A   Unknown
1:56 PM 36.0 °F 28.5 °F 36.0 °F 100% 29.59 in - South 10.4 mph - N/A   Unknown
2:56 PM 37.0 °F 30.4 °F 37.0 °F 100% 29.55 in - SSE 9.2 mph - N/A   Unknown
3:56 PM 37.0 °F 31.6 °F 37.0 °F 100% 29.51 in - SSE 6.9 mph - N/A   Unknown
4:56 PM 39.0 °F 33.4 °F 39.0 °F 100% 29.49 in - South 8.1 mph - N/A   Unknown
5:56 PM 43.0 °F 36.4 °F 42.1 °F 97% 29.45 in - South 12.7 mph 20.7 mph N/A   Unknown
6:56 PM 44.1 °F 39.0 °F 44.1 °F 100% 29.46 in - South 9.2 mph 19.6 mph N/A   Unknown
7:56 PM 41.0 °F 37.1 °F 41.0 °F 100% 29.43 in - SSE 5.8 mph - N/A   Unknown
8:56 PM 42.1 °F 38.4 °F 41.0 °F 96% 29.42 in - Variable 5.8 mph - 0.01 in   Unknown
9:56 PM 42.1 °F 38.4 °F 41.0 °F 96% 29.40 in - Variable 5.8 mph - 0.05 in   Unknown
10:56 PM 41.0 °F 37.1 °F 41.0 °F 100% 29.40 in - SSE 5.8 mph - N/A   Unknown
11:56 PM 42.1 °F 37.1 °F 42.1 °F 100% 29.35 in - SSE 8.1 mph 18.4 mph 0.01 in   Unknown